Weather History for Curacao, Curacao

Change the Weather History Date:

Wednesday, August 20, 2014

  Actual Average Record
Temperature  
Mean Temperature 82 °F -  
Max Temperature 89 °F 89 °F 93 °F (1996)
Min Temperature 76 °F 78 °F 76 °F (2014)
Cooling Degree Days 18    
Growing Degree Days 32 (Base 50)    
Moisture  
Dew Point 77 °F    
Average Humidity 78    
Maximum Humidity 94    
Minimum Humidity 60    
Precipitation  
Precipitation 0.12 in 0.06 in - ()
Sea Level Pressure  
Sea Level Pressure 29.93 in    
Wind  
Wind Speed 10 mph ()    
Max Wind Speed 16 mph    
Max Gust Speed 23 mph    
Visibility 8.3 miles    
Events Rain    
Averages and records for this station are not official NWS values.
T = Trace of Precipitation, MM = Missing Value Source: Averaged Metar Reports

Daily Weather History Graph

Daily Weather History Graph

Search for Another Location

Airport:

Trip Planner

Search our weather history database for the weather conditions in past years. The results will help you decide how hot, cold, wet, or windy it might be!

Date:

Astronomy

Aug. 20, 2014 Rise Set
Actual Time 6:24 AM AST 6:53 PM AST
Civil Twilight 6:03 AM AST 7:15 PM AST
Nautical Twilight 5:37 AM AST 7:40 PM AST
Astronomical Twilight 5:12 AM AST 8:06 PM AST
Moon 2:20 AM AST (8/20) 3:17 PM AST (8/20)
Length of Visible Light 13h 11m
Length of Day
12h 28m
Waning Crescent, 21% of the Moon is Illuminated
Aug 20
Waning Crescent
Aug 25
New
Sep 2
First Quarter
Sep 8
Full
Sep 15
Last Quarter

Hourly Weather History & Observations

Time (AST) Temp. Heat Index Dew Point Humidity Pressure Visibility Wind Dir Wind Speed Gust Speed Precip Events Conditions
12:00 AM 82.4 °F 90.9 °F 77.0 °F 84% 29.95 in 6.2 mi East 10.4 mph - N/A   Partly Cloudy
1:00 AM 82.4 °F 90.9 °F 77.0 °F 84% 29.92 in 6.2 mi East 11.5 mph - N/A   Partly Cloudy
2:00 AM 82 °F - 77 °F 81% 29.91 in 12 mi East 11.5 mph - -   Partly Cloudy
2:00 AM 82.4 °F 90.9 °F 77.0 °F 84% 29.89 in 6.2 mi East 12.7 mph - N/A   Scattered Clouds
3:00 AM 82.4 °F 90.9 °F 77.0 °F 84% 29.89 in 6.2 mi East 11.5 mph - N/A   Partly Cloudy
4:00 AM 82.4 °F 90.9 °F 77.0 °F 84% 29.89 in 6.2 mi ESE 11.5 mph - N/A   Partly Cloudy
5:00 AM 82 °F - 76 °F 78% 29.91 in 12 mi ESE 8.1 mph - -   Haze
5:00 AM 80.6 °F 86.2 °F 75.2 °F 84% 29.89 in 6.2 mi ESE 8.1 mph - N/A   Partly Cloudy
6:00 AM 78.8 °F - 75.2 °F 89% 29.92 in 6.2 mi SE 9.2 mph 23.0 mph N/A Rain Light Rain Showers
7:00 AM 78.8 °F - 77.0 °F 94% 29.92 in 6.2 mi SE 5.8 mph - N/A   Scattered Clouds
8:00 AM 81 °F - 78 °F 86% 29.96 in 16 mi ESE 9.2 mph - -   Partly Cloudy
8:00 AM 80.6 °F 87.1 °F 77.0 °F 89% 29.95 in 6.2 mi ESE 6.9 mph - N/A   Partly Cloudy
9:00 AM 84.2 °F 94.1 °F 77.0 °F 79% 29.95 in 6.2 mi ESE 10.4 mph - N/A   Partly Cloudy
10:00 AM 86.0 °F 96.9 °F 77.0 °F 74% 29.98 in 6.2 mi East 11.5 mph - N/A   Scattered Clouds
11:00 AM 87 °F - 78 °F 67% 29.97 in 16 mi East 12.7 mph - -   Partly Cloudy
11:00 AM 87.8 °F 99.7 °F 77.0 °F 70% 29.98 in 6.2 mi East 12.7 mph - N/A   Scattered Clouds
12:00 PM 87.8 °F 99.7 °F 77.0 °F 70% 29.95 in 6.2 mi East 12.7 mph - N/A   Scattered Clouds
1:00 PM 87.8 °F 99.7 °F 77.0 °F 70% 29.92 in 6.2 mi East 13.8 mph - N/A   Scattered Clouds
2:00 PM 89 °F - 77 °F 60% 29.92 in 16 mi East 12.7 mph - -   Partly Cloudy
2:00 PM 89.6 °F 102.2 °F 77.0 °F 66% 29.92 in 6.2 mi East 12.7 mph - N/A   Scattered Clouds
3:00 PM 87.8 °F 99.7 °F 77.0 °F 70% 29.89 in 6.2 mi East 12.7 mph - N/A   Scattered Clouds
4:00 PM 86.0 °F 96.9 °F 77.0 °F 74% 29.89 in 6.2 mi East 13.8 mph - N/A   Scattered Clouds
5:00 PM 86 °F - 76 °F 66% 29.88 in 12 mi East 12.7 mph - -   Haze
5:00 PM 86.0 °F 96.9 °F 77.0 °F 74% 29.89 in 6.2 mi East 11.5 mph - N/A   Scattered Clouds
6:00 PM 84.2 °F 94.1 °F 77.0 °F 79% 29.89 in 6.2 mi East 11.5 mph - N/A   Scattered Clouds
7:00 PM 82.4 °F 90.9 °F 77.0 °F 84% 29.92 in 6.2 mi ENE 13.8 mph - N/A   Scattered Clouds
8:00 PM 83 °F - 76 °F 75% 29.93 in 16 mi East 16.1 mph - -   Scattered Clouds
8:00 PM 82.4 °F 90.9 °F 77.0 °F 84% 29.92 in 6.2 mi East 13.8 mph - N/A   Partly Cloudy
10:00 PM 82.4 °F 90.9 °F 77.0 °F 84% 29.98 in 6.2 mi East 12.7 mph - N/A   Scattered Clouds
11:00 PM 82 °F - 77 °F 80% 29.98 in 16 mi East 11.5 mph - -   Scattered Clouds
11:00 PM 82.4 °F 90.9 °F 77.0 °F 84% 29.98 in 6.2 mi East 11.5 mph - N/A   Partly Cloudy